owner,sensor,date,latitude,longitude,vertical_datum,sea_water_temperature,qcFlag 
WAVCIS,ioos:station:WAVCIS:CSI16:1,2009-07-01T00:00:00Z,29.4012,-89.0355,10.0,27.597,11111222 
WAVCIS,ioos:station:WAVCIS:CSI16:1,2009-07-01T00:15:00Z,29.4012,-89.0355,10.0,27.838,11111222 
WAVCIS,ioos:station:WAVCIS:CSI16:1,2009-07-01T00:30:00Z,29.4012,-89.0355,10.0,27.701,11111222 
WAVCIS,ioos:station:WAVCIS:CSI16:1,2009-07-01T00:45:00Z,29.4012,-89.0355,10.0,26.357,11111222 
WAVCIS,ioos:station:WAVCIS:CSI16:1,2009-07-01T01:00:00Z,29.4012,-89.0355,10.0,26.743,11111222 
WAVCIS,ioos:station:WAVCIS:CSI16:1,2009-07-01T01:15:00Z,29.4012,-89.0355,10.0,26.783,11111222 
WAVCIS,ioos:station:WAVCIS:CSI16:1,2009-07-01T01:30:00Z,29.4012,-89.0355,10.0,26.735,11111222 
WAVCIS,ioos:station:WAVCIS:CSI16:1,2009-07-01T01:45:00Z,29.4012,-89.0355,10.0,26.696,11111222 
WAVCIS,ioos:station:WAVCIS:CSI16:1,2009-07-01T02:00:00Z,29.4012,-89.0355,10.0,26.566,11111222 
WAVCIS,ioos:station:WAVCIS:CSI16:1,2009-07-01T02:15:00Z,29.4012,-89.0355,10.0,26.853,11111222 
WAVCIS,ioos:station:WAVCIS:CSI16:1,2009-07-01T02:30:00Z,29.4012,-89.0355,10.0,27.053,11111222 
WAVCIS,ioos:station:WAVCIS:CSI16:1,2009-07-01T02:45:00Z,29.4012,-89.0355,10.0,27.062,11111222 
WAVCIS,ioos:station:WAVCIS:CSI16:1,2009-07-01T03:00:00Z,29.4012,-89.0355,10.0,27.296,11111222 
WAVCIS,ioos:station:WAVCIS:CSI16:1,2009-07-01T03:15:00Z,29.4012,-89.0355,10.0,28.791,11111222 
WAVCIS,ioos:station:WAVCIS:CSI16:1,2009-07-01T03:30:00Z,29.4012,-89.0355,10.0,28.874,11111222 
WAVCIS,ioos:station:WAVCIS:CSI16:1,2009-07-01T03:45:00Z,29.4012,-89.0355,10.0,28.622,11111222 
WAVCIS,ioos:station:WAVCIS:CSI16:1,2009-07-01T04:00:00Z,29.4012,-89.0355,10.0,28.208,11111222 
WAVCIS,ioos:station:WAVCIS:CSI16:1,2009-07-01T04:15:00Z,29.4012,-89.0355,10.0,28.254,11111222 
WAVCIS,ioos:station:WAVCIS:CSI16:1,2009-07-01T04:30:00Z,29.4012,-89.0355,10.0,28.039,11111222 
WAVCIS,ioos:station:WAVCIS:CSI16:1,2009-07-01T04:45:00Z,29.4012,-89.0355,10.0,27.606,11111222 
WAVCIS,ioos:station:WAVCIS:CSI16:1,2009-07-01T05:00:00Z,29.4012,-89.0355,10.0,26.24,11111222 
WAVCIS,ioos:station:WAVCIS:CSI16:1,2009-07-01T05:15:00Z,29.4012,-89.0355,10.0,26.775,11111222 
WAVCIS,ioos:station:WAVCIS:CSI16:1,2009-07-01T05:30:00Z,29.4012,-89.0355,10.0,26.467,11111222 
WAVCIS,ioos:station:WAVCIS:CSI16:1,2009-07-01T05:45:00Z,29.4012,-89.0355,10.0,26.16,11111222 
WAVCIS,ioos:station:WAVCIS:CSI16:1,2009-07-01T06:00:00Z,29.4012,-89.0355,10.0,26.3,11111222 
WAVCIS,ioos:station:WAVCIS:CSI16:1,2009-07-01T06:15:00Z,29.4012,-89.0355,10.0,26.286,11111222 
WAVCIS,ioos:station:WAVCIS:CSI16:1,2009-07-01T06:30:00Z,29.4012,-89.0355,10.0,26.229,11111222 
WAVCIS,ioos:station:WAVCIS:CSI16:1,2009-07-01T06:45:00Z,29.4012,-89.0355,10.0,26.255,11111222 
WAVCIS,ioos:station:WAVCIS:CSI16:1,2009-07-01T07:00:00Z,29.4012,-89.0355,10.0,25.722,11111222 
WAVCIS,ioos:station:WAVCIS:CSI16:1,2009-07-01T07:15:00Z,29.4012,-89.0355,10.0,26.107,11111222 
WAVCIS,ioos:station:WAVCIS:CSI16:1,2009-07-01T07:30:00Z,29.4012,-89.0355,10.0,25.997,11111222 
WAVCIS,ioos:station:WAVCIS:CSI16:1,2009-07-01T07:45:00Z,29.4012,-89.0355,10.0,26.231,11111222 
WAVCIS,ioos:station:WAVCIS:CSI16:1,2009-07-01T08:00:00Z,29.4012,-89.0355,10.0,27.297,11111222 
WAVCIS,ioos:station:WAVCIS:CSI16:1,2009-07-01T08:15:00Z,29.4012,-89.0355,10.0,26.856,11111222 
WAVCIS,ioos:station:WAVCIS:CSI16:1,2009-07-01T08:30:00Z,29.4012,-89.0355,10.0,27.392,11111222 
WAVCIS,ioos:station:WAVCIS:CSI16:1,2009-07-01T08:45:00Z,29.4012,-89.0355,10.0,27.206,11111222 
WAVCIS,ioos:station:WAVCIS:CSI16:1,2009-07-01T09:00:00Z,29.4012,-89.0355,10.0,26.891,11111222 
WAVCIS,ioos:station:WAVCIS:CSI16:1,2009-07-01T09:15:00Z,29.4012,-89.0355,10.0,26.912,11111222 
WAVCIS,ioos:station:WAVCIS:CSI16:1,2009-07-01T09:30:00Z,29.4012,-89.0355,10.0,26.736,11111222 
WAVCIS,ioos:station:WAVCIS:CSI16:1,2009-07-01T09:45:00Z,29.4012,-89.0355,10.0,25.295,11111222 
WAVCIS,ioos:station:WAVCIS:CSI16:1,2009-07-01T10:00:00Z,29.4012,-89.0355,10.0,25.146,11111222 
WAVCIS,ioos:station:WAVCIS:CSI16:1,2009-07-01T10:15:00Z,29.4012,-89.0355,10.0,24.15,11111222 
WAVCIS,ioos:station:WAVCIS:CSI16:1,2009-07-01T10:30:00Z,29.4012,-89.0355,10.0,26.126,11111222 
WAVCIS,ioos:station:WAVCIS:CSI16:1,2009-07-01T10:45:00Z,29.4012,-89.0355,10.0,25.279,11111222 
WAVCIS,ioos:station:WAVCIS:CSI16:1,2009-07-01T11:00:00Z,29.4012,-89.0355,10.0,25.431,11111222 
WAVCIS,ioos:station:WAVCIS:CSI16:1,2009-07-01T11:15:00Z,29.4012,-89.0355,10.0,25.291,11111222 
WAVCIS,ioos:station:WAVCIS:CSI16:1,2009-07-01T11:30:00Z,29.4012,-89.0355,10.0,25.179,11111222 
WAVCIS,ioos:station:WAVCIS:CSI16:1,2009-07-01T11:45:00Z,29.4012,-89.0355,10.0,25.042,11111222 
WAVCIS,ioos:station:WAVCIS:CSI16:1,2009-07-01T12:00:00Z,29.4012,-89.0355,10.0,24.799,11111222 
WAVCIS,ioos:station:WAVCIS:CSI16:1,2009-07-01T12:15:00Z,29.4012,-89.0355,10.0,23.517,11111222 
WAVCIS,ioos:station:WAVCIS:CSI16:1,2009-07-01T12:30:00Z,29.4012,-89.0355,10.0,24.426,11111222 
WAVCIS,ioos:station:WAVCIS:CSI16:1,2009-07-01T12:45:00Z,29.4012,-89.0355,10.0,23.307,11111222 
WAVCIS,ioos:station:WAVCIS:CSI16:1,2009-07-01T13:00:00Z,29.4012,-89.0355,10.0,24.044,11111222 
WAVCIS,ioos:station:WAVCIS:CSI16:1,2009-07-01T13:15:00Z,29.4012,-89.0355,10.0,25.319,11111222 
WAVCIS,ioos:station:WAVCIS:CSI16:1,2009-07-01T13:30:00Z,29.4012,-89.0355,10.0,25.513,11111222 
WAVCIS,ioos:station:WAVCIS:CSI16:1,2009-07-01T13:45:00Z,29.4012,-89.0355,10.0,25.301,11111222 
WAVCIS,ioos:station:WAVCIS:CSI16:1,2009-07-01T14:00:00Z,29.4012,-89.0355,10.0,25.572,11111222 
WAVCIS,ioos:station:WAVCIS:CSI16:1,2009-07-01T14:15:00Z,29.4012,-89.0355,10.0,25.762,11111222 
WAVCIS,ioos:station:WAVCIS:CSI16:1,2009-07-01T14:30:00Z,29.4012,-89.0355,10.0,25.702,11111222 
WAVCIS,ioos:station:WAVCIS:CSI16:1,2009-07-01T14:45:00Z,29.4012,-89.0355,10.0,25.736,11111222 
WAVCIS,ioos:station:WAVCIS:CSI16:1,2009-07-01T15:00:00Z,29.4012,-89.0355,10.0,26.026,11111222 
WAVCIS,ioos:station:WAVCIS:CSI16:1,2009-07-01T15:15:00Z,29.4012,-89.0355,10.0,25.822,11111222 
WAVCIS,ioos:station:WAVCIS:CSI16:1,2009-07-01T15:30:00Z,29.4012,-89.0355,10.0,27.189,11111222 
WAVCIS,ioos:station:WAVCIS:CSI16:1,2009-07-01T15:45:00Z,29.4012,-89.0355,10.0,26.829,11111222 
WAVCIS,ioos:station:WAVCIS:CSI16:1,2009-07-01T16:00:00Z,29.4012,-89.0355,10.0,26.913,11111222 
WAVCIS,ioos:station:WAVCIS:CSI16:1,2009-07-01T16:15:00Z,29.4012,-89.0355,10.0,27.055,11111222 
WAVCIS,ioos:station:WAVCIS:CSI16:1,2009-07-01T16:30:00Z,29.4012,-89.0355,10.0,27.631,11111222 
WAVCIS,ioos:station:WAVCIS:CSI16:1,2009-07-01T16:45:00Z,29.4012,-89.0355,10.0,27.228,11111222 
WAVCIS,ioos:station:WAVCIS:CSI16:1,2009-07-01T17:00:00Z,29.4012,-89.0355,10.0,26.94,11111222 
WAVCIS,ioos:station:WAVCIS:CSI16:1,2009-07-01T17:15:00Z,29.4012,-89.0355,10.0,27.463,11111222 
WAVCIS,ioos:station:WAVCIS:CSI16:1,2009-07-01T17:30:00Z,29.4012,-89.0355,10.0,27.315,11111222 
WAVCIS,ioos:station:WAVCIS:CSI16:1,2009-07-01T17:45:00Z,29.4012,-89.0355,10.0,27.132,11111222 
WAVCIS,ioos:station:WAVCIS:CSI16:1,2009-07-01T18:00:00Z,29.4012,-89.0355,10.0,28.021,11111222 
WAVCIS,ioos:station:WAVCIS:CSI16:1,2009-07-01T18:15:00Z,29.4012,-89.0355,10.0,27.693,11111222 
WAVCIS,ioos:station:WAVCIS:CSI16:1,2009-07-01T18:30:00Z,29.4012,-89.0355,10.0,28.969,11111222 
WAVCIS,ioos:station:WAVCIS:CSI16:1,2009-07-01T18:45:00Z,29.4012,-89.0355,10.0,28.772,11111222 
WAVCIS,ioos:station:WAVCIS:CSI16:1,2009-07-01T19:00:00Z,29.4012,-89.0355,10.0,29.171,11111222 
WAVCIS,ioos:station:WAVCIS:CSI16:1,2009-07-01T19:15:00Z,29.4012,-89.0355,10.0,29.392,11111222 
WAVCIS,ioos:station:WAVCIS:CSI16:1,2009-07-01T19:30:00Z,29.4012,-89.0355,10.0,29.22,11111222 
WAVCIS,ioos:station:WAVCIS:CSI16:1,2009-07-01T19:45:00Z,29.4012,-89.0355,10.0,29.272,11111222 
WAVCIS,ioos:station:WAVCIS:CSI16:1,2009-07-01T20:00:00Z,29.4012,-89.0355,10.0,28.906,11111222 
WAVCIS,ioos:station:WAVCIS:CSI16:1,2009-07-01T20:15:00Z,29.4012,-89.0355,10.0,28.497,11111222 
WAVCIS,ioos:station:WAVCIS:CSI16:1,2009-07-01T20:30:00Z,29.4012,-89.0355,10.0,28.528,11111222 
WAVCIS,ioos:station:WAVCIS:CSI16:1,2009-07-01T20:45:00Z,29.4012,-89.0355,10.0,28.295,11111222 
WAVCIS,ioos:station:WAVCIS:CSI16:1,2009-07-01T21:00:00Z,29.4012,-89.0355,10.0,28.424,11111222 
WAVCIS,ioos:station:WAVCIS:CSI16:1,2009-07-01T21:15:00Z,29.4012,-89.0355,10.0,28.525,11111222 
WAVCIS,ioos:station:WAVCIS:CSI16:1,2009-07-01T21:30:00Z,29.4012,-89.0355,10.0,28.393,11111222 
WAVCIS,ioos:station:WAVCIS:CSI16:1,2009-07-01T21:45:00Z,29.4012,-89.0355,10.0,28.151,11111222 
WAVCIS,ioos:station:WAVCIS:CSI16:1,2009-07-01T22:00:00Z,29.4012,-89.0355,10.0,27.918,11111222 
WAVCIS,ioos:station:WAVCIS:CSI16:1,2009-07-01T22:15:00Z,29.4012,-89.0355,10.0,27.633,11111222 
WAVCIS,ioos:station:WAVCIS:CSI16:1,2009-07-01T22:30:00Z,29.4012,-89.0355,10.0,27.503,11111222 
WAVCIS,ioos:station:WAVCIS:CSI16:1,2009-07-01T22:45:00Z,29.4012,-89.0355,10.0,28.44,11111222 
WAVCIS,ioos:station:WAVCIS:CSI16:1,2009-07-01T23:00:00Z,29.4012,-89.0355,10.0,28.415,11111222 
WAVCIS,ioos:station:WAVCIS:CSI16:1,2009-07-01T23:15:00Z,29.4012,-89.0355,10.0,28.7,11111222 
WAVCIS,ioos:station:WAVCIS:CSI16:1,2009-07-01T23:30:00Z,29.4012,-89.0355,10.0,29.142,11111222 
WAVCIS,ioos:station:WAVCIS:CSI16:1,2009-07-01T23:45:00Z,29.4012,-89.0355,10.0,30.136,11111222 
WAVCIS,ioos:station:WAVCIS:CSI16:1,2009-07-02T00:00:00Z,29.4012,-89.0355,10.0,30.653,11111222 
WAVCIS,ioos:station:WAVCIS:CSI16:1,2009-07-02T00:15:00Z,29.4012,-89.0355,10.0,30.383,11111222 
WAVCIS,ioos:station:WAVCIS:CSI16:1,2009-07-02T00:30:00Z,29.4012,-89.0355,10.0,30.112,11111222 
WAVCIS,ioos:station:WAVCIS:CSI16:1,2009-07-02T00:45:00Z,29.4012,-89.0355,10.0,30.083,11111222 
WAVCIS,ioos:station:WAVCIS:CSI16:1,2009-07-02T01:00:00Z,29.4012,-89.0355,10.0,30.028,11111222 
WAVCIS,ioos:station:WAVCIS:CSI16:1,2009-07-02T01:15:00Z,29.4012,-89.0355,10.0,29.635,11111222 
WAVCIS,ioos:station:WAVCIS:CSI16:1,2009-07-02T01:30:00Z,29.4012,-89.0355,10.0,29.256,11111222 
WAVCIS,ioos:station:WAVCIS:CSI16:1,2009-07-02T01:45:00Z,29.4012,-89.0355,10.0,29.063,11111222 
WAVCIS,ioos:station:WAVCIS:CSI16:1,2009-07-02T02:00:00Z,29.4012,-89.0355,10.0,28.986,11111222 
WAVCIS,ioos:station:WAVCIS:CSI16:1,2009-07-02T02:15:00Z,29.4012,-89.0355,10.0,28.993,11111222 
WAVCIS,ioos:station:WAVCIS:CSI16:1,2009-07-02T02:30:00Z,29.4012,-89.0355,10.0,29.492,11111222 
WAVCIS,ioos:station:WAVCIS:CSI16:1,2009-07-02T02:45:00Z,29.4012,-89.0355,10.0,29.129,11111222 
WAVCIS,ioos:station:WAVCIS:CSI16:1,2009-07-02T03:00:00Z,29.4012,-89.0355,10.0,30.782,11111222 
WAVCIS,ioos:station:WAVCIS:CSI16:1,2009-07-02T03:15:00Z,29.4012,-89.0355,10.0,31.049,11111222 
WAVCIS,ioos:station:WAVCIS:CSI16:1,2009-07-02T03:30:00Z,29.4012,-89.0355,10.0,31.051,11111222 
WAVCIS,ioos:station:WAVCIS:CSI16:1,2009-07-02T03:45:00Z,29.4012,-89.0355,10.0,30.958,11111222 
WAVCIS,ioos:station:WAVCIS:CSI16:1,2009-07-02T04:00:00Z,29.4012,-89.0355,10.0,29.305,11111222 
WAVCIS,ioos:station:WAVCIS:CSI16:1,2009-07-02T04:15:00Z,29.4012,-89.0355,10.0,27.278,11111222 
WAVCIS,ioos:station:WAVCIS:CSI16:1,2009-07-02T04:30:00Z,29.4012,-89.0355,10.0,28.376,11111222 
WAVCIS,ioos:station:WAVCIS:CSI16:1,2009-07-02T04:45:00Z,29.4012,-89.0355,10.0,28.083,11111222 
WAVCIS,ioos:station:WAVCIS:CSI16:1,2009-07-02T05:00:00Z,29.4012,-89.0355,10.0,29.507,11111222 
WAVCIS,ioos:station:WAVCIS:CSI16:1,2009-07-02T05:15:00Z,29.4012,-89.0355,10.0,28.371,11111222 
WAVCIS,ioos:station:WAVCIS:CSI16:1,2009-07-02T05:30:00Z,29.4012,-89.0355,10.0,27.299,11111222 
WAVCIS,ioos:station:WAVCIS:CSI16:1,2009-07-02T05:45:00Z,29.4012,-89.0355,10.0,28.895,11111222 
WAVCIS,ioos:station:WAVCIS:CSI16:1,2009-07-02T06:00:00Z,29.4012,-89.0355,10.0,29.025,11111222 
WAVCIS,ioos:station:WAVCIS:CSI16:1,2009-07-02T06:15:00Z,29.4012,-89.0355,10.0,25.717,11111222 
WAVCIS,ioos:station:WAVCIS:CSI16:1,2009-07-02T06:30:00Z,29.4012,-89.0355,10.0,25.706,11111222 
WAVCIS,ioos:station:WAVCIS:CSI16:1,2009-07-02T06:45:00Z,29.4012,-89.0355,10.0,25.143,11111222 
WAVCIS,ioos:station:WAVCIS:CSI16:1,2009-07-02T07:00:00Z,29.4012,-89.0355,10.0,24.749,11111222 
WAVCIS,ioos:station:WAVCIS:CSI16:1,2009-07-02T07:15:00Z,29.4012,-89.0355,10.0,24.414,11111222 
WAVCIS,ioos:station:WAVCIS:CSI16:1,2009-07-02T07:30:00Z,29.4012,-89.0355,10.0,24.502,11111222 
WAVCIS,ioos:station:WAVCIS:CSI16:1,2009-07-02T07:45:00Z,29.4012,-89.0355,10.0,23.787,11111222 
WAVCIS,ioos:station:WAVCIS:CSI16:1,2009-07-02T08:00:00Z,29.4012,-89.0355,10.0,24.188,11111222 
WAVCIS,ioos:station:WAVCIS:CSI16:1,2009-07-02T08:15:00Z,29.4012,-89.0355,10.0,23.955,11111222 
WAVCIS,ioos:station:WAVCIS:CSI16:1,2009-07-02T08:30:00Z,29.4012,-89.0355,10.0,23.857,11111222 
WAVCIS,ioos:station:WAVCIS:CSI16:1,2009-07-02T08:45:00Z,29.4012,-89.0355,10.0,23.722,11111222 
WAVCIS,ioos:station:WAVCIS:CSI16:1,2009-07-02T09:00:00Z,29.4012,-89.0355,10.0,24.039,11111222 
WAVCIS,ioos:station:WAVCIS:CSI16:1,2009-07-02T09:15:00Z,29.4012,-89.0355,10.0,23.689,11111222 
WAVCIS,ioos:station:WAVCIS:CSI16:1,2009-07-02T09:30:00Z,29.4012,-89.0355,10.0,23.738,11111222 
WAVCIS,ioos:station:WAVCIS:CSI16:1,2009-07-02T09:45:00Z,29.4012,-89.0355,10.0,23.926,11111222 
WAVCIS,ioos:station:WAVCIS:CSI16:1,2009-07-02T10:00:00Z,29.4012,-89.0355,10.0,23.965,11111222 
WAVCIS,ioos:station:WAVCIS:CSI16:1,2009-07-02T10:15:00Z,29.4012,-89.0355,10.0,24.087,11111222 
WAVCIS,ioos:station:WAVCIS:CSI16:1,2009-07-02T10:30:00Z,29.4012,-89.0355,10.0,24.026,11111222 
WAVCIS,ioos:station:WAVCIS:CSI16:1,2009-07-02T10:45:00Z,29.4012,-89.0355,10.0,23.995,11111222 
WAVCIS,ioos:station:WAVCIS:CSI16:1,2009-07-02T11:00:00Z,29.4012,-89.0355,10.0,23.985,11111222 
WAVCIS,ioos:station:WAVCIS:CSI16:1,2009-07-02T11:15:00Z,29.4012,-89.0355,10.0,23.897,11111222 
WAVCIS,ioos:station:WAVCIS:CSI16:1,2009-07-02T11:30:00Z,29.4012,-89.0355,10.0,23.865,11111222 
WAVCIS,ioos:station:WAVCIS:CSI16:1,2009-07-02T11:45:00Z,29.4012,-89.0355,10.0,23.733,11111222 
WAVCIS,ioos:station:WAVCIS:CSI16:1,2009-07-02T12:00:00Z,29.4012,-89.0355,10.0,23.926,11111222 
WAVCIS,ioos:station:WAVCIS:CSI16:1,2009-07-02T12:15:00Z,29.4012,-89.0355,10.0,23.852,11111222 
WAVCIS,ioos:station:WAVCIS:CSI16:1,2009-07-02T12:30:00Z,29.4012,-89.0355,10.0,24.039,11111222 
WAVCIS,ioos:station:WAVCIS:CSI16:1,2009-07-02T12:45:00Z,29.4012,-89.0355,10.0,23.955,11111222 
WAVCIS,ioos:station:WAVCIS:CSI16:1,2009-07-02T13:00:00Z,29.4012,-89.0355,10.0,25.077,11111222 
WAVCIS,ioos:station:WAVCIS:CSI16:1,2009-07-02T13:15:00Z,29.4012,-89.0355,10.0,24.993,11111222 
WAVCIS,ioos:station:WAVCIS:CSI16:1,2009-07-02T13:30:00Z,29.4012,-89.0355,10.0,25.49,11111222 
WAVCIS,ioos:station:WAVCIS:CSI16:1,2009-07-02T13:45:00Z,29.4012,-89.0355,10.0,25.089,11111222 
WAVCIS,ioos:station:WAVCIS:CSI16:1,2009-07-02T14:00:00Z,29.4012,-89.0355,10.0,25.633,11111222 
WAVCIS,ioos:station:WAVCIS:CSI16:1,2009-07-02T14:15:00Z,29.4012,-89.0355,10.0,25.393,11111222 
WAVCIS,ioos:station:WAVCIS:CSI16:1,2009-07-02T14:30:00Z,29.4012,-89.0355,10.0,25.221,11111222 
WAVCIS,ioos:station:WAVCIS:CSI16:1,2009-07-02T14:45:00Z,29.4012,-89.0355,10.0,25.871,11111222 
WAVCIS,ioos:station:WAVCIS:CSI16:1,2009-07-02T15:00:00Z,29.4012,-89.0355,10.0,25.976,11111222 
WAVCIS,ioos:station:WAVCIS:CSI16:1,2009-07-02T15:15:00Z,29.4012,-89.0355,10.0,25.845,11111222 
WAVCIS,ioos:station:WAVCIS:CSI16:1,2009-07-02T15:30:00Z,29.4012,-89.0355,10.0,26.194,11111222 
WAVCIS,ioos:station:WAVCIS:CSI16:1,2009-07-02T15:45:00Z,29.4012,-89.0355,10.0,25.304,11111222 
WAVCIS,ioos:station:WAVCIS:CSI16:1,2009-07-02T16:00:00Z,29.4012,-89.0355,10.0,26.065,11111222 
WAVCIS,ioos:station:WAVCIS:CSI16:1,2009-07-02T16:15:00Z,29.4012,-89.0355,10.0,25.665,11111222 
WAVCIS,ioos:station:WAVCIS:CSI16:1,2009-07-02T16:30:00Z,29.4012,-89.0355,10.0,27.362,11111222 
WAVCIS,ioos:station:WAVCIS:CSI16:1,2009-07-02T16:45:00Z,29.4012,-89.0355,10.0,29.165,11111222 
WAVCIS,ioos:station:WAVCIS:CSI16:1,2009-07-02T17:00:00Z,29.4012,-89.0355,10.0,28.708,11111222 
WAVCIS,ioos:station:WAVCIS:CSI16:1,2009-07-02T17:15:00Z,29.4012,-89.0355,10.0,28.056,11111222 
WAVCIS,ioos:station:WAVCIS:CSI16:1,2009-07-02T17:30:00Z,29.4012,-89.0355,10.0,27.571,11111222 
WAVCIS,ioos:station:WAVCIS:CSI16:1,2009-07-02T17:45:00Z,29.4012,-89.0355,10.0,27.341,11111222 
WAVCIS,ioos:station:WAVCIS:CSI16:1,2009-07-02T18:00:00Z,29.4012,-89.0355,10.0,27.503,11111222 
WAVCIS,ioos:station:WAVCIS:CSI16:1,2009-07-02T18:15:00Z,29.4012,-89.0355,10.0,27.741,11111222 
WAVCIS,ioos:station:WAVCIS:CSI16:1,2009-07-02T18:30:00Z,29.4012,-89.0355,10.0,27.069,11111222 
WAVCIS,ioos:station:WAVCIS:CSI16:1,2009-07-02T18:45:00Z,29.4012,-89.0355,10.0,27.316,11111222 
WAVCIS,ioos:station:WAVCIS:CSI16:1,2009-07-02T19:00:00Z,29.4012,-89.0355,10.0,27.55,11111222 
WAVCIS,ioos:station:WAVCIS:CSI16:1,2009-07-02T19:15:00Z,29.4012,-89.0355,10.0,27.858,11111222 
WAVCIS,ioos:station:WAVCIS:CSI16:1,2009-07-02T19:30:00Z,29.4012,-89.0355,10.0,27.805,11111222 
WAVCIS,ioos:station:WAVCIS:CSI16:1,2009-07-02T19:45:00Z,29.4012,-89.0355,10.0,29.531,11111222 
WAVCIS,ioos:station:WAVCIS:CSI16:1,2009-07-02T20:00:00Z,29.4012,-89.0355,10.0,29.594,11111222 
WAVCIS,ioos:station:WAVCIS:CSI16:1,2009-07-02T20:15:00Z,29.4012,-89.0355,10.0,29.816,11111222 
WAVCIS,ioos:station:WAVCIS:CSI16:1,2009-07-02T20:30:00Z,29.4012,-89.0355,10.0,30.804,11111222 
WAVCIS,ioos:station:WAVCIS:CSI16:1,2009-07-02T20:45:00Z,29.4012,-89.0355,10.0,30.494,11111222 
WAVCIS,ioos:station:WAVCIS:CSI16:1,2009-07-02T21:00:00Z,29.4012,-89.0355,10.0,30.212,11111222 
WAVCIS,ioos:station:WAVCIS:CSI16:1,2009-07-02T21:15:00Z,29.4012,-89.0355,10.0,30.026,11111222 
WAVCIS,ioos:station:WAVCIS:CSI16:1,2009-07-02T21:30:00Z,29.4012,-89.0355,10.0,29.77,11111222 
WAVCIS,ioos:station:WAVCIS:CSI16:1,2009-07-02T21:45:00Z,29.4012,-89.0355,10.0,29.716,11111222 
WAVCIS,ioos:station:WAVCIS:CSI16:1,2009-07-02T22:00:00Z,29.4012,-89.0355,10.0,29.216,11111222 
WAVCIS,ioos:station:WAVCIS:CSI16:1,2009-07-02T22:15:00Z,29.4012,-89.0355,10.0,28.672,11111222 
WAVCIS,ioos:station:WAVCIS:CSI16:1,2009-07-02T22:30:00Z,29.4012,-89.0355,10.0,28.731,11111222 
WAVCIS,ioos:station:WAVCIS:CSI16:1,2009-07-02T22:45:00Z,29.4012,-89.0355,10.0,28.959,11111222 
WAVCIS,ioos:station:WAVCIS:CSI16:1,2009-07-02T23:00:00Z,29.4012,-89.0355,10.0,28.582,11111222 
WAVCIS,ioos:station:WAVCIS:CSI16:1,2009-07-02T23:15:00Z,29.4012,-89.0355,10.0,27.652,11111222 
WAVCIS,ioos:station:WAVCIS:CSI16:1,2009-07-02T23:30:00Z,29.4012,-89.0355,10.0,27.15,11111222 
WAVCIS,ioos:station:WAVCIS:CSI16:1,2009-07-02T23:45:00Z,29.4012,-89.0355,10.0,27.212,11111222 
WAVCIS,ioos:station:WAVCIS:CSI16:1,2009-07-03T00:00:00Z,29.4012,-89.0355,10.0,26.883,11111222 
WAVCIS,ioos:station:WAVCIS:CSI16:1,2009-07-03T00:15:00Z,29.4012,-89.0355,10.0,27.556,11111222 
WAVCIS,ioos:station:WAVCIS:CSI16:1,2009-07-03T00:30:00Z,29.4012,-89.0355,10.0,27.017,11111222 
WAVCIS,ioos:station:WAVCIS:CSI16:1,2009-07-03T00:45:00Z,29.4012,-89.0355,10.0,26.706,11111222 
WAVCIS,ioos:station:WAVCIS:CSI16:1,2009-07-03T01:00:00Z,29.4012,-89.0355,10.0,29.583,11111222 
WAVCIS,ioos:station:WAVCIS:CSI16:1,2009-07-03T01:15:00Z,29.4012,-89.0355,10.0,27.422,11111222 
WAVCIS,ioos:station:WAVCIS:CSI16:1,2009-07-03T01:30:00Z,29.4012,-89.0355,10.0,26.813,11111222 
WAVCIS,ioos:station:WAVCIS:CSI16:1,2009-07-03T01:45:00Z,29.4012,-89.0355,10.0,27.425,11111222 
WAVCIS,ioos:station:WAVCIS:CSI16:1,2009-07-03T02:00:00Z,29.4012,-89.0355,10.0,26.602,11111222 
WAVCIS,ioos:station:WAVCIS:CSI16:1,2009-07-03T02:15:00Z,29.4012,-89.0355,10.0,27.825,11111222 
WAVCIS,ioos:station:WAVCIS:CSI16:1,2009-07-03T02:30:00Z,29.4012,-89.0355,10.0,27.627,11111222 
WAVCIS,ioos:station:WAVCIS:CSI16:1,2009-07-03T02:45:00Z,29.4012,-89.0355,10.0,27.98,11111222 
WAVCIS,ioos:station:WAVCIS:CSI16:1,2009-07-03T03:00:00Z,29.4012,-89.0355,10.0,28.584,11111222 
WAVCIS,ioos:station:WAVCIS:CSI16:1,2009-07-03T03:15:00Z,29.4012,-89.0355,10.0,28.67,11111222 
WAVCIS,ioos:station:WAVCIS:CSI16:1,2009-07-03T03:30:00Z,29.4012,-89.0355,10.0,28.71,11111222 
WAVCIS,ioos:station:WAVCIS:CSI16:1,2009-07-03T03:45:00Z,29.4012,-89.0355,10.0,28.294,11111222 
WAVCIS,ioos:station:WAVCIS:CSI16:1,2009-07-03T04:00:00Z,29.4012,-89.0355,10.0,28.487,11111222 
WAVCIS,ioos:station:WAVCIS:CSI16:1,2009-07-03T04:15:00Z,29.4012,-89.0355,10.0,28.42,11111222 
WAVCIS,ioos:station:WAVCIS:CSI16:1,2009-07-03T04:30:00Z,29.4012,-89.0355,10.0,28.303,11111222 
WAVCIS,ioos:station:WAVCIS:CSI16:1,2009-07-03T04:45:00Z,29.4012,-89.0355,10.0,27.994,11111222 
WAVCIS,ioos:station:WAVCIS:CSI16:1,2009-07-03T05:00:00Z,29.4012,-89.0355,10.0,27.351,11111222 
WAVCIS,ioos:station:WAVCIS:CSI16:1,2009-07-03T05:15:00Z,29.4012,-89.0355,10.0,26.816,11111222 
WAVCIS,ioos:station:WAVCIS:CSI16:1,2009-07-03T05:30:00Z,29.4012,-89.0355,10.0,26.987,11111222 
WAVCIS,ioos:station:WAVCIS:CSI16:1,2009-07-03T05:45:00Z,29.4012,-89.0355,10.0,26.282,11111222 
WAVCIS,ioos:station:WAVCIS:CSI16:1,2009-07-03T06:00:00Z,29.4012,-89.0355,10.0,26.046,11111222 
WAVCIS,ioos:station:WAVCIS:CSI16:1,2009-07-03T06:15:00Z,29.4012,-89.0355,10.0,26.028,11111222 
WAVCIS,ioos:station:WAVCIS:CSI16:1,2009-07-03T06:30:00Z,29.4012,-89.0355,10.0,28.184,11111222 
WAVCIS,ioos:station:WAVCIS:CSI16:1,2009-07-03T06:45:00Z,29.4012,-89.0355,10.0,26.565,11111222 
WAVCIS,ioos:station:WAVCIS:CSI16:1,2009-07-03T07:00:00Z,29.4012,-89.0355,10.0,27.206,11111222 
WAVCIS,ioos:station:WAVCIS:CSI16:1,2009-07-03T07:15:00Z,29.4012,-89.0355,10.0,26.228,11111222 
WAVCIS,ioos:station:WAVCIS:CSI16:1,2009-07-03T07:30:00Z,29.4012,-89.0355,10.0,26.897,11111222 
WAVCIS,ioos:station:WAVCIS:CSI16:1,2009-07-03T07:45:00Z,29.4012,-89.0355,10.0,25.707,11111222 
WAVCIS,ioos:station:WAVCIS:CSI16:1,2009-07-03T08:00:00Z,29.4012,-89.0355,10.0,25.997,11111222 
WAVCIS,ioos:station:WAVCIS:CSI16:1,2009-07-03T08:15:00Z,29.4012,-89.0355,10.0,26.175,11111222 
WAVCIS,ioos:station:WAVCIS:CSI16:1,2009-07-03T08:30:00Z,29.4012,-89.0355,10.0,25.684,11111222 
WAVCIS,ioos:station:WAVCIS:CSI16:1,2009-07-03T08:45:00Z,29.4012,-89.0355,10.0,24.901,11111222 
WAVCIS,ioos:station:WAVCIS:CSI16:1,2009-07-03T09:00:00Z,29.4012,-89.0355,10.0,25.096,11111222 
WAVCIS,ioos:station:WAVCIS:CSI16:1,2009-07-03T09:15:00Z,29.4012,-89.0355,10.0,24.751,11111222 
WAVCIS,ioos:station:WAVCIS:CSI16:1,2009-07-03T09:30:00Z,29.4012,-89.0355,10.0,24.689,11111222 
WAVCIS,ioos:station:WAVCIS:CSI16:1,2009-07-03T09:45:00Z,29.4012,-89.0355,10.0,24.313,11111222 
WAVCIS,ioos:station:WAVCIS:CSI16:1,2009-07-03T10:00:00Z,29.4012,-89.0355,10.0,24.021,11111222 
WAVCIS,ioos:station:WAVCIS:CSI16:1,2009-07-03T10:15:00Z,29.4012,-89.0355,10.0,24.003,11111222 
WAVCIS,ioos:station:WAVCIS:CSI16:1,2009-07-03T10:30:00Z,29.4012,-89.0355,10.0,23.995,11111222 
WAVCIS,ioos:station:WAVCIS:CSI16:1,2009-07-03T10:45:00Z,29.4012,-89.0355,10.0,24.054,11111222 
WAVCIS,ioos:station:WAVCIS:CSI16:1,2009-07-03T11:00:00Z,29.4012,-89.0355,10.0,24.158,11111222 
WAVCIS,ioos:station:WAVCIS:CSI16:1,2009-07-03T11:15:00Z,29.4012,-89.0355,10.0,24.221,11111222 
WAVCIS,ioos:station:WAVCIS:CSI16:1,2009-07-03T11:30:00Z,29.4012,-89.0355,10.0,24.282,11111222 
WAVCIS,ioos:station:WAVCIS:CSI16:1,2009-07-03T11:45:00Z,29.4012,-89.0355,10.0,24.331,11111222 
WAVCIS,ioos:station:WAVCIS:CSI16:1,2009-07-03T12:00:00Z,29.4012,-89.0355,10.0,24.322,11111222 
WAVCIS,ioos:station:WAVCIS:CSI16:1,2009-07-03T12:15:00Z,29.4012,-89.0355,10.0,24.611,11111222 
WAVCIS,ioos:station:WAVCIS:CSI16:1,2009-07-03T12:30:00Z,29.4012,-89.0355,10.0,25.501,11111222 
WAVCIS,ioos:station:WAVCIS:CSI16:1,2009-07-03T12:45:00Z,29.4012,-89.0355,10.0,24.382,11111222 
WAVCIS,ioos:station:WAVCIS:CSI16:1,2009-07-03T13:00:00Z,29.4012,-89.0355,10.0,24.956,11111222 
WAVCIS,ioos:station:WAVCIS:CSI16:1,2009-07-03T13:15:00Z,29.4012,-89.0355,10.0,24.695,11111222 
WAVCIS,ioos:station:WAVCIS:CSI16:1,2009-07-03T13:30:00Z,29.4012,-89.0355,10.0,24.632,11111222 
WAVCIS,ioos:station:WAVCIS:CSI16:1,2009-07-03T13:45:00Z,29.4012,-89.0355,10.0,24.562,11111222 
WAVCIS,ioos:station:WAVCIS:CSI16:1,2009-07-03T14:00:00Z,29.4012,-89.0355,10.0,24.474,11111222 
WAVCIS,ioos:station:WAVCIS:CSI16:1,2009-07-03T14:15:00Z,29.4012,-89.0355,10.0,24.367,11111222 
WAVCIS,ioos:station:WAVCIS:CSI16:1,2009-07-03T14:30:00Z,29.4012,-89.0355,10.0,24.245,11111222 